STARLINK-36485, 67312

Orbit data source: Space-Track

STARLINK-36485, 67312 is a payload satellite owned by SpaceX/Seattle (US) in LEO that was launched on Sun, 04 Jan 2026 UTC via an FALCON 9 launch vehicle from the Air Force Eastern Test Range (AFETR). Payload-class satellites include a variety of spacecraft equipped with specific instruments for various scientific and technological missions. These include communications satellites like Starlink; space stations such as the ISS; scientific satellites like the Hubble; Earth observation satellites from companies like Planet Labs, Umbra, and HawkEye 360; GPS; miniature CubeSats for education and research; and military/defense satellites.

Loading next visibility...
Identifier
67312, 2026-002H
Orbit
LEO
Country
Flag of USUS
Related business
Manufacturer
SpaceX/Seattle
Mission
Operational Commercial Communications
Bus & Motor
STARLINK V2MO, Unknown motor
Mass
575 kg wet, ~530 kg dry
Launch date (UTC)
2026-01-04 (5 months ago)
Launch vehicle
FALCON 9
Launch site
Air Force Eastern Test Range (AFETR)
Object type
Payload
Rocket body
Debris
Shape & HBR
Box + 2 Pan, 17.7 m
Radar Cross Section
36.964 m², Large (>1 m²)

Expand to show TLE details & history
Last TLE update: 17 hours ago

TLE from 17 hours ago
0 STARLINK-36485
1 67312U 26002H   26171.15262894  .00016209  00000-0  59741-3 0  9990
2 67312  43.0028 106.2338 0001576 282.9207  77.1469 15.27571588 26753
Epoch: 2026-06-20T03:39Z
TLE epoch observation values (Epoch: 2026-06-20T03:39:47.140Z)
Latitude
0.00001°
Longitude
142.91605°
Altitude
482.61 km
Speed
7.626 km/s
True Right ascension
07h 04m 56s
True Declination
0° 00' 00"
Sunlit
Object was in daylight at epoch
Visualization orbit readout
Latitude
Unknown
Longitude
Unknown
Altitude
Unknown
Speed
Unknown
Apparent Right ascension
Unknown
Apparent Declination
Unknown
Sunlit
N/A
Visualization observer readout
Local Sidereal Time
07:23:03
Azimuth
Unknown
Elevation
Unknown
Doppler factor
Unknown
Orbital elements
Apogee altitude
486.101 km
Perigee altitude
483.937 km
Semi-major axis
6,863.156 km
Eccentricity
0.00016
Inclination
43.0028°
RAAN
106.2338°
Arg. of periapsis
282.9207°
True anomaly
77.16451°
Mean anomaly
77.1469°
Eccentric anomaly
77.1557°
Mean motion
3.81731 °/min
Orbital period
94.31 mins
BSTAR
0.00059741
Loading maneuver chart data...
Computing Atmospheric mass density...
Loading historical data...
Loading historical data...
Loading historical data...
Loading historical data...
Loading historical data...
Loading historical data...
Loading historical data...

Documentation

Showing up to 5 results
|